TimeEDT,TemperatureF,Dew PointF,Humidity,Sea Level PressureIn,VisibilityMPH,Wind Direction,Wind SpeedMPH,Gust SpeedMPH,PrecipitationIn,Events,Conditions,WindDirDegrees,DateUTC
12:08 AM,42.8,39.2,87,29.84,7.0,North,6.9,-,0.01,Rain,Light Rain,360,2013-04-24 04:08:00
12:16 AM,42.8,39.2,87,29.84,7.0,North,8.1,-,0.01,Rain,Light Rain,350,2013-04-24 04:16:00
12:53 AM,43.0,39.9,89,29.84,6.0,NW,5.8,-,0.08,Rain,Rain,320,2013-04-24 04:53:00
1:53 AM,42.1,39.0,89,29.83,7.0,NNW,10.4,-,0.08,Rain,Light Rain,330,2013-04-24 05:53:00
2:53 AM,41.0,37.9,89,29.83,4.0,NW,10.4,-,0.04,Rain,Rain,320,2013-04-24 06:53:00
3:53 AM,39.9,37.0,89,29.84,9.0,NW,10.4,19.6,0.02,Rain,Light Rain,320,2013-04-24 07:53:00
4:53 AM,39.9,37.0,89,29.85,5.0,NNW,10.4,-,0.01,Rain,Light Rain,330,2013-04-24 08:53:00
5:32 AM,37.4,35.6,93,29.85,8.0,NNW,16.1,21.9,0.00,Rain,Light Rain,340,2013-04-24 09:32:00
6:53 AM,36.0,33.1,89,29.89,10.0,NNW,12.7,21.9,0.00,,Overcast,340,2013-04-24 10:53:00
7:53 AM,36.0,32.0,86,29.91,10.0,NNW,16.1,-,N/A,,Overcast,340,2013-04-24 11:53:00
8:53 AM,36.0,32.0,86,29.91,10.0,NNW,16.1,-,N/A,,Overcast,340,2013-04-24 12:53:00
9:53 AM,37.0,32.0,82,29.91,10.0,NNW,12.7,-,N/A,,Overcast,340,2013-04-24 13:53:00
10:53 AM,37.0,30.9,79,29.96,10.0,NNW,10.4,-,N/A,,Overcast,330,2013-04-24 14:53:00
11:18 AM,37.4,30.2,75,29.95,10.0,NW,13.8,-,0.00,Rain,Light Rain,320,2013-04-24 15:18:00
11:28 AM,37.4,30.2,75,29.96,9.0,WNW,16.1,-,0.00,Snow,Light Snow,300,2013-04-24 15:28:00
11:35 AM,35.6,30.2,81,29.96,2.5,NW,16.1,-,0.00,Snow,Light Snow,310,2013-04-24 15:35:00
11:44 AM,35.6,32.0,87,29.96,3.0,NW,12.7,-,0.00,Snow,Light Snow,320,2013-04-24 15:44:00
11:53 AM,37.0,33.1,86,29.98,3.0,NW,16.1,-,0.00,Snow,Light Snow,320,2013-04-24 15:53:00
12:11 PM,37.4,33.8,87,29.97,2.5,NW,16.1,-,0.01,Snow,Light Snow,310,2013-04-24 16:11:00
12:20 PM,37.4,33.8,87,29.97,3.0,WNW,11.5,-,0.01,Snow,Light Snow,300,2013-04-24 16:20:00
12:33 PM,37.4,33.8,87,29.96,7.0,NW,12.7,-,0.01,Rain,Light Rain,310,2013-04-24 16:33:00
12:53 PM,37.0,33.1,86,29.98,10.0,NW,12.7,-,0.01,,Overcast,310,2013-04-24 16:53:00
1:29 PM,39.2,33.8,81,29.97,10.0,WNW,16.1,-,0.00,,Overcast,300,2013-04-24 17:29:00
1:53 PM,39.9,30.9,70,30.01,10.0,WNW,15.0,-,0.00,,Overcast,290,2013-04-24 17:53:00
2:03 PM,39.2,30.2,70,29.99,10.0,WNW,16.1,21.9,N/A,,Overcast,290,2013-04-24 18:03:00
2:53 PM,42.1,33.1,70,30.03,10.0,WNW,17.3,-,N/A,,Overcast,290,2013-04-24 18:53:00
3:53 PM,43.0,30.0,60,30.05,10.0,West,18.4,25.3,N/A,,Overcast,280,2013-04-24 19:53:00
4:53 PM,44.1,28.9,55,30.06,10.0,WNW,17.3,25.3,N/A,,Scattered Clouds,290,2013-04-24 20:53:00
5:53 PM,44.1,25.0,47,30.08,10.0,NW,16.1,21.9,N/A,,Clear,310,2013-04-24 21:53:00
6:53 PM,44.1,23.0,43,30.10,10.0,WNW,11.5,-,N/A,,Clear,300,2013-04-24 22:53:00
7:53 PM,43.0,26.1,51,30.11,10.0,West,8.1,-,N/A,,Clear,270,2013-04-24 23:53:00
8:53 PM,41.0,28.0,60,30.13,10.0,SW,4.6,-,N/A,,Clear,220,2013-04-25 00:53:00
9:53 PM,37.9,28.9,70,30.16,10.0,South,4.6,-,N/A,,Clear,180,2013-04-25 01:53:00
10:53 PM,37.0,28.9,73,30.18,10.0,South,5.8,-,N/A,,Clear,190,2013-04-25 02:53:00
11:53 PM,39.0,30.0,70,30.17,10.0,SSW,9.2,-,N/A,,Clear,210,2013-04-25 03:53:00